EW4224 Weather Reports


time (UTC)temp
F
wind
direction
speed
knots
gust
knots
rain 1hr
in
rain 24hr
in
rain mn
in
humidity
%
barometer
mb
20260504214503 80 229 3.5 9.6 0.00 0.00 0.00 34 1027.8
20260504213603 79 215 5.2 16.5 0.00 0.00 0.00 34 1028.0
20260504212703 79 207 6.1 16.5 0.00 0.00 0.00 34 1028.1
20260504211803 79 211 7.0 16.5 0.00 0.00 0.00 35 1028.3
20260504210903 79 222 7.0 16.5 0.00 0.00 0.00 34 1028.5
20260504210004 79 214 6.1 15.6 0.00 0.00 0.00 34 1028.5
20260504205403 80 213 6.1 16.5 0.00 0.00 0.00 34 1028.5
20260504204503 80 210 7.8 16.5 0.00 0.00 0.00 35 1029.1
20260504203813 79 206 7.0 13.0 0.00 0.00 0.00 35 1028.9
20260504202703 80 212 5.2 14.8 0.00 0.00 0.00 36 1028.9
20260504201803 79 218 4.3 11.3 0.00 0.00 0.00 35 1029.0
20260504200903 79 215 6.1 14.8 0.00 0.00 0.00 34 1029.2
20260504200212 81 221 4.3 11.3 0.00 0.00 0.00 31 1029.2
20260504195403 79 231 5.2 12.2 0.00 0.00 0.00 31 1029.3
20260504194503 81 229 5.2 13.0 0.00 0.00 0.00 30 1029.5
20260504193603 81 224 4.3 14.8 0.00 0.00 0.00 32 1029.5
20260504192914 79 247 5.2 14.8 0.00 0.00 0.00 31 1029.7
20260504191803 80 238 3.5 10.4 0.00 0.00 0.00 32 1029.8
20260504190903 79 255 5.2 12.2 0.00 0.00 0.00 30 1030.0
20260504190003 80 278 6.1 12.2 0.00 0.00 0.00 29 1029.9
20260504185614 80 248 5.2 13.9 0.00 0.00 0.00 29 1029.9
20260504184503 79 250 5.2 13.9 0.00 0.00 0.00 30 1030.0
20260504183603 80 225 5.2 14.8 0.00 0.00 0.00 30 1030.0
20260504182703 79 230 5.2 14.8 0.00 0.00 0.00 33 1030.0
20260504182013 78 212 6.1 14.8 0.00 0.00 0.00 35 1030.3
20260504180903 78 212 6.1 15.6 0.00 0.00 0.00 34 1030.4
20260504180003 77 222 5.2 12.2 0.00 0.00 0.00 36 1030.4
20260504175613 77 217 5.2 12.2 0.00 0.00 0.00 35 1030.4
20260504174713 77 215 7.0 13.9 0.00 0.00 0.00 36 1030.7
20260504173814 77 207 7.0 18.2 0.00 0.00 0.00 34 1030.7
20260504172703 77 221 4.3 12.2 0.00 0.00 0.00 35 1030.8
20260504171803 77 215 4.3 13.0 0.00 0.00 0.00 35 1030.9
20260504171114 76 206 4.3 11.3 0.00 0.00 0.00 35 1031.0
20260504150903 70 200 3.5 8.7 0.00 0.06 0.00 49 1032.9
20260504140903 63 191 5.2 11.3 0.00 0.11 0.00 59 1033.6
20260504100213 45 144 1.7 3.5 0.00 0.11 0.00 83 1034.8
20260504081803 50 184 1.7 3.5 0.00 0.11 0.00 73 1035.0
20260504080903 50 192 0.9 1.7 0.00 0.11 0.00 73 1034.7
20260504080214 50 268 0.0 1.7 0.00 0.11 0.00 73 1034.4
20260504070214 49 174 0.9 2.6 0.00 0.11 0.00 81 1035.5
20260504050003 54 193 2.6 7.0 0.00 0.11 0.00 73 1036.5
20260504045403 54 193 2.6 7.0 0.00 0.11 0.11 73 1036.6
20260504044714 54 186 2.6 4.3 0.00 0.11 0.11 72 1036.5
20260504043603 54 188 3.5 6.1 0.00 0.11 0.11 71 1036.4
20260504042703 54 193 2.6 5.2 0.00 0.11 0.11 71 1036.4
20260504041803 55 193 2.6 4.3 0.00 0.11 0.11 71 1036.4
20260504040903 55 190 2.6 5.2 0.00 0.11 0.11 71 1036.5
20260504040003 55 192 2.6 5.2 0.00 0.11 0.11 70 1036.4
20260504035403 56 193 2.6 5.2 0.00 0.11 0.11 69 1036.4
20260504034503 56 192 2.6 5.2 0.00 0.11 0.11 68 1036.3
20260504033603 56 187 1.7 3.5 0.00 0.11 0.11 68 1036.6
20260504032703 56 183 1.7 3.5 0.00 0.11 0.11 67 1036.3
20260504031803 57 183 1.7 4.3 0.00 0.11 0.11 65 1036.6
20260504030903 57 179 1.7 4.3 0.00 0.11 0.11 65 1036.6
20260504030003 58 184 1.7 4.3 0.00 0.11 0.11 65 1036.6
20260504025614 58 183 1.7 4.3 0.00 0.11 0.11 64 1036.6
20260504024503 59 193 2.6 7.0 0.00 0.11 0.11 63 1036.5
20260504023603 59 192 2.6 5.2 0.00 0.11 0.11 63 1036.6
20260504022703 59 188 2.6 3.5 0.00 0.11 0.11 63 1036.5
20260504021803 59 185 2.6 3.5 0.00 0.11 0.11 63 1036.6
20260504020903 59 186 1.7 4.3 0.00 0.11 0.11 62 1036.4
20260504020214 59 187 2.6 4.3 0.00 0.11 0.11 62 1036.3
20260504015403 60 187 2.6 4.3 0.00 0.11 0.11 62 1036.2
20260504014503 60 193 2.6 5.2 0.00 0.11 0.11 61 1036.2
20260504013603 60 186 2.6 5.2 0.00 0.11 0.11 61 1036.2
20260504012703 61 190 2.6 5.2 0.00 0.11 0.11 60 1036.0
20260504011803 62 193 3.5 6.1 0.00 0.11 0.11 59 1035.9
20260504011114 62 194 3.5 9.6 0.00 0.11 0.11 57 1036.0
20260504010213 63 200 5.2 10.4 0.00 0.11 0.11 55 1035.9
20260504005403 64 197 4.3 11.3 0.00 0.11 0.11 54 1035.7
20260504004503 64 199 3.5 7.8 0.00 0.11 0.11 54 1035.8
20260504003603 65 197 3.5 7.0 0.00 0.11 0.11 54 1035.9
20260504002703 66 200 3.5 7.0 0.00 0.11 0.11 52 1035.7
20260504001803 66 203 3.5 8.7 0.00 0.11 0.11 50 1035.8
20260504000903 67 204 4.3 9.6 0.00 0.11 0.11 49 1035.9
20260504000213 68 204 3.5 12.2 0.00 0.11 0.11 48 1035.8
20260503235403 68 206 5.2 12.2 0.00 0.11 0.11 47 1035.7
20260503234714 68 202 4.3 10.4 0.00 0.11 0.11 46 1035.7
20260503233603 69 210 4.3 13.0 0.00 0.11 0.11 45 1035.7
20260503232912 69 209 5.2 13.0 0.00 0.11 0.11 45 1035.8
20260503231803 69 214 5.2 12.2 0.00 0.11 0.11 44 1035.9
20260503230903 69 216 4.3 14.8 0.00 0.11 0.11 43 1035.9
20260503230003 69 206 5.2 14.8 0.00 0.11 0.11 45 1035.9
20260503225403 69 203 5.2 13.0 0.00 0.11 0.11 44 1036.1
20260503224503 69 213 7.0 17.4 0.00 0.11 0.11 43 1036.1
20260503223603 70 209 5.2 13.9 0.00 0.11 0.11 45 1036.1
20260503222703 70 242 4.3 13.0 0.00 0.11 0.11 43 1035.9
20260503221803 70 208 6.1 18.2 0.00 0.11 0.11 42 1036.1
20260503220903 69 211 6.1 18.2 0.00 0.11 0.11 43 1036.3
20260503220003 69 217 6.1 15.6 0.00 0.11 0.11 43 1036.4
20260503215403 69 210 7.0 15.6 0.00 0.11 0.11 43 1036.2